Location: Владивосток
(43.1151°N, 131.8856°E)
Time: 23:46:46
(UTC+10:00)

EO-88 - Pass Details

Date: 09 July 2022
Orbit: 454 x 462 km, 97.3° (Epoch: 07 August)

Event Time Altitude Azimuth Distance (km) Brightness Sun altitude
Exits shadow 22:57:20 28° 199° (SSW) 912 ? -17.0°
Maximum altitude 22:58:52 50° 260° (W) 604 ? -17.2°
Drops below altitude 10° 23:02:17 10° 337° (NNW) 1,624 ? -17.5°
Sets 23:04:22 0° 343° (NNW) 2,503 ? -17.7°
